This demonstration page uses our WeatherBlox Daily Observations layout. Learn more.

Left ArrowRight Arrow

36.19886, -115.1175

Hourly Observations for December 21, 2015

Temp ( °F °C ) Dew Point ( °F °C ) Humidity (%) Winds ( mph kmh ) Pressure ( in mb ) Visibility ( mi km ) Precip ( " mm )
12:53 am 00:53 Clear 41 5 32 0 70 70 N 7 11 30.21 1023 10 16 0.00 0.00
1:53 am 01:53 Clear 39 3.9 32 0 76 76 NNW 3 6 30.21 1023 10 16 0.00 0.00
2:53 am 02:53 Clear 40 4.4 32 0 73 73 NNW 5 7 30.21 1023 10 16 0.00 0.00
3:53 am 03:53 Clear 38 3.3 31 -0.6 76 76 N 3 6 30.21 1023 10 16 0.00 0.00
4:53 am 04:53 Clear 37 2.8 30 -1.1 76 76 NW 3 6 30.20 1023 10 16 0.00 0.00
5:53 am 05:53 Clear 37 2.8 30 -1.1 76 76 Calm 30.20 1023 10 16 0.00 0.00
6:53 am 06:53 Sunny 39 3.9 32 0 76 76 Calm 30.20 1023 10 16 0.00 0.00
7:53 am 07:53 Sunny 39 3.9 32 0 76 76 Calm 30.21 1023 10 16 0.00 0.00
8:53 am 08:53 Sunny 42 5.6 33 0.6 71 71 Calm 30.21 1023 10 16 0.00 0.00
9:53 am 09:53 Sunny 44 6.7 33 0.6 65 65 Calm 30.22 1023 10 16 0.00 0.00
10:53 am 10:53 Sunny 46 7.8 33 0.6 61 61 ESE 5 7 30.17 1022 10 16 0.00 0.00
11:53 am 11:53 Sunny 48 8.9 33 0.6 56 56 E 5 7 30.14 1021 10 16 0.00 0.00
12:53 pm 12:53 Sunny 48 8.9 33 0.6 56 56 SSE 3 6 30.09 1019 10 16 0.00 0.00
1:53 pm 13:53 Sunny 49 9.4 32 0 52 52 ESE 7 11 30.05 1018 10 16 0.00 0.00
2:53 pm 14:53 Sunny 49 9.4 33 0.6 55 55 ENE 9 15 30.01 1016 10 16 0.00 0.00
3:53 pm 15:53 Sunny 49 9.4 32 0 52 52 NNE 5 7 30.01 1016 10 16 0.00 0.00
4:53 pm 16:53 Cloudy 49 9.4 32 0 52 52 NE 7 11 29.98 1015 10 16 0.00 0.00
5:53 pm 17:53 Cloudy 49 9.4 32 0 52 52 NE 8 13 29.98 1015 10 16 0.00 0.00
6:53 pm 18:53 Clear 48 8.9 31 -0.6 52 52 E 10 17 29.96 1015 10 16 0.00 0.00
7:53 pm 19:53 Mostly Clear 48 8.9 31 -0.6 52 52 E 8 13 29.95 1014 10 16 0.00 0.00
8:53 pm 20:53 Cloudy 48 8.9 32 0 54 54 E 3 6 29.93 1014 10 16 0.00 0.00
9:53 pm 21:53 Mostly Clear 48 8.9 32 0 54 54 ENE 5 7 29.92 1013 10 16 0.00 0.00
10:53 pm 22:53 Mostly Clear 45 7.2 32 0 61 61 N 7 11 29.90 1013 10 16 0.00 0.00
11:53 pm 23:53 Mostly Cloudy 44 6.7 32 0 63 63 N 6 9 29.87 1012 10 16 0.00 0.00

Powered by AerisWeather